EHI
7 11 25 41 51 52 47 44 43 42 41 38 31 25 25 29 33 36 34 28 24 20 16 14 13 10 7 6 6 6 4 4 5 5 6 7 7 6 6 7 6 6 8
11 16 28 41 49 50 48 46 45 45 43 37 31 26 26 28 30 30 28 25 21 17 15 14 12 9 7 6 6 6 5 5 5 5 5 6 6 6 6 6 5 6 9
16 21 30 41 47 48 48 47 47 47 43 36 31 28 27 27 26 26 25 22 19 15 13 12 10 7 7 7 7 7 7 8 8 6 5 5 6 6 6 6 6 7 10
17 22 30 40 45 45 45 46 45 43 39 32 28 27 25 24 23 23 23 22 19 16 12 10 7 6 7 8 9 9 10 10 9 7 4 3 5 6 8 9 9 10 11
15 18 28 39 43 42 43 43 40 37 33 27 23 23 22 20 19 19 19 18 16 14 10 8 7 6 7 9 10 10 10 10 8 5 2 2 3 6 9 10 11 12 12
13 14 23 37 42 41 42 40 35 31 29 25 22 22 20 18 19 19 18 15 12 9 8 6 6 7 7 9 10 10 9 8 6 3 1 1 3 7 11 12 11 12 12
13 12 19 31 38 39 41 40 34 29 27 26 24 23 20 19 22 23 20 15 11 8 7 6 6 6 7 8 9 9 9 7 5 3 1 0 2 7 12 12 10 9 10
12 12 16 25 31 33 38 40 36 31 30 28 26 25 23 22 23 23 20 16 12 9 7 6 5 5 6 7 9 9 8 8 6 3 1 0 1 5 9 11 9 7 8
11 11 14 20 23 25 29 34 35 32 31 29 26 26 25 23 20 18 17 14 11 9 9 8 7 6 6 6 7 8 7 7 7 5 2 1 1 3 8 11 10 9 9
8 9 11 14 15 17 19 24 27 27 26 25 23 22 22 21 18 16 14 12 10 9 10 9 8 6 5 6 7 7 5 5 5 6 4 2 2 5 9 11 11 11 11
6 7 7 8 10 12 13 14 17 17 17 18 17 17 18 18 17 14 11 10 10 9 8 7 6 4 4 7 8 7 5 3 4 5 4 4 5 9 11 11 10 11 12
6 6 5 5 7 8 8 8 9 8 8 10 11 12 14 15 14 12 9 8 8 6 5 5 3 2 3 5 7 7 4 1 2 3 3 5 8 10 10 9 8 10 11
6 5 4 3 4 5 5 6 7 7 6 7 9 10 11 10 10 9 7 6 5 4 4 4 3 3 3 4 4 4 2 0 0 1 2 5 8 8 8 7 8 10 11
5 5 4 4 3 3 3 5 6 8 9 8 8 9 10 9 8 9 8 6 5 5 4 3 3 3 3 3 3 1 0 0 0 0 2 5 7 7 7 9 9 10 11
6 6 6 6 4 2 2 3 4 6 8 8 7 8 9 10 10 10 10 8 6 5 5 4 3 3 3 2 2 1 0 0 0 0 2 5 6 6 8 11 13 13 11
7 7 7 6 4 2 2 1 2 4 7 8 7 6 8 11 11 10 9 8 6 5 5 4 3 2 1 1 1 0 0 0 0 0 2 4 4 3 6 10 14 14 11
7 8 7 4 2 2 3 2 3 5 7 7 7 6 6 9 11 10 9 7 6 6 6 4 3 2 1 0 0 0 0 0 0 1 1 2 2 2 4 8 12 12 9
7 7 6 3 1 1 3 4 4 6 7 6 6 6 6 7 8 9 8 7 6 7 6 4 3 2 1 0 0 0 0 0 0 0 1 1 1 1 3 7 9 9 8
8 8 6 3 1 1 3 4 5 5 4 5 6 6 6 6 6 6 7 6 6 6 5 3 2 1 0 0 0 0 0 0 0 0 0 0 0 0 1 4 5 5 5
10 10 9 6 4 4 4 5 5 4 3 3 5 6 6 6 6 6 6 5 6 6 4 2 0 0 0 0 0 0 0 0 0 0 0 0 0 0 0 1 1 2 3
11 12 12 11 8 7 7 5 4 4 4 3 4 5 6 6 6 7 6 6 6 6 3 1 0 0 0 0 0 0 0 0 0 0 0 0 0 0 0 0 0 1 1
9 10 12 13 11 9 8 5 4 5 5 5 5 5 5 6 7 6 6 5 6 5 3 1 0 0 0 0 0 0 0 0 0 0 0 0 0 0 0 0 0 0 0
7 7 9 12 12 10 7 5 4 4 4 4 5 4 4 5 6 5 5 4 4 4 3 2 1 0 0 0 0 0 0 0 0 0 0 0 0 0 0 0 0 0 0
6 6 7 9 10 10 8 6 5 4 3 3 3 2 2 3 4 4 4 3 3 3 3 3 2 1 0 0 0 0 0 0 0 0 0 0 0 0 0 0 0 0 0
6 5 6 8 9 9 8 6 5 4 3 3 1 0 1 1 2 3 3 3 3 3 3 3 3 2 1 0 0 0 0 0 0 0 0 0 0 0 0 0 0 0 0
5 5 5 7 8 8 7 5 4 4 3 2 1 0 0 0 1 3 3 3 3 3 3 3 3 3 2 1 0 0 0 0 0 0 0 0 0 0 0 0 0 0 0
Wind_Speed
5 6 10 11 12 12 12 12 12 12 13 12 13 13 13 13 13 13 14 13 13 13 13 12 11 11 11 12 12 12 12 12 11 11 12 12 12 12 12 12 12 9 13
9 8 10 11 12 12 12 12 12 12 12 12 12 12 12 12 12 12 12 12 12 11 11 11 11 11 11 11 10 10 11 10 10 10 10 10 11 11 10 11 11 8 13
10 8 9 10 12 12 12 12 12 12 11 11 11 11 11 11 11 11 11 11 10 10 10 10 10 10 9 9 9 9 10 9 9 9 8 5 7 11 11 10 11 12 12
10 7 9 10 12 12 12 11 11 12 11 11 11 11 11 10 10 10 10 10 10 9 9 9 9 9 8 8 8 8 8 8 7 7 4 3 4 9 11 11 12 11 12
8 6 9 12 12 12 12 11 11 11 11 11 10 10 10 10 9 9 9 9 9 8 8 8 8 8 7 7 7 7 6 6 6 5 3 3 3 8 10 12 12 12 11
8 6 8 11 12 12 12 11 11 11 11 10 10 9 9 8 8 8 8 8 8 8 8 8 7 7 7 6 6 6 6 6 5 3 3 3 3 8 11 12 12 12 11
7 5 6 10 11 12 11 11 11 10 10 9 9 9 8 8 7 7 7 6 6 7 7 7 7 7 7 7 6 6 6 6 4 3 3 3 4 9 11 11 11 12 12
9 6 5 9 10 10 10 10 9 9 9 8 8 8 8 8 7 7 7 6 6 6 6 7 6 6 6 6 6 5 6 6 4 3 3 4 6 9 11 11 10 11 11
8 7 4 4 6 9 9 9 9 8 8 8 8 7 7 7 8 8 7 7 6 6 6 6 6 7 7 7 6 6 6 6 4 2 5 4 8 11 12 11 11 11 11
6 5 4 4 4 4 5 8 8 8 8 8 8 8 7 7 7 8 7 7 6 6 6 6 6 6 7 7 7 7 7 5 3 4 3 5 10 11 11 11 11 11 11
4 3 3 4 3 3 3 5 6 7 7 7 6 7 6 3 3 4 6 7 7 7 7 6 6 6 6 7 8 7 6 3 3 3 3 7 11 12 11 12 12 12 11
4 3 3 4 3 3 3 3 2 3 3 3 3 3 3 2 2 4 5 7 7 7 7 7 6 6 5 2 5 6 2 4 3 4 5 11 12 14 14 13 13 12 12
4 3 2 4 3 3 3 3 1 1 2 2 3 3 2 2 2 2 1 2 3 4 3 3 3 2 2 2 3 3 3 4 3 4 6 12 13 14 15 14 13 13 12
4 3 3 4 4 3 2 2 3 2 2 2 3 4 3 2 2 2 2 1 1 1 2 2 2 2 3 4 4 4 4 4 3 3 5 13 13 14 15 15 14 13 12
4 3 3 4 5 3 2 1 2 2 2 3 2 2 3 3 2 2 2 1 1 1 1 2 2 2 3 3 4 4 4 5 5 5 4 11 14 14 15 14 14 13 13
4 3 3 4 4 4 2 2 2 2 2 2 2 2 2 2 2 2 2 1 1 1 2 2 2 2 2 2 3 3 4 4 5 5 5 7 12 13 13 14 14 14 14
4 3 3 4 4 3 2 2 2 1 1 1 1 2 2 2 2 2 2 1 1 1 2 1 1 1 1 2 2 3 3 4 4 5 5 5 6 11 13 14 14 14 14
4 4 3 3 3 2 2 1 1 1 2 1 1 1 1 1 2 2 1 1 1 1 1 1 1 1 1 1 2 2 2 2 4 4 4 5 5 5 9 14 14 14 14
4 3 3 2 3 2 2 2 1 1 1 1 1 1 1 1 1 1 1 1 1 1 1 1 1 1 1 2 2 2 2 2 3 4 4 5 6 6 5 10 14 15 14
4 4 3 2 2 2 1 1 1 1 0 0 0 1 1 1 2 1 1 2 1 1 1 1 1 1 2 2 2 2 2 2 2 3 4 4 5 7 6 7 7 9 14
3 3 3 3 2 2 2 1 1 1 1 0 1 1 1 2 2 2 2 1 1 1 2 2 1 1 1 1 0 2 2 2 2 2 3 3 4 5 6 6 5 5 6
3 3 2 3 3 2 2 2 2 1 1 1 1 1 1 2 2 3 2 2 2 1 1 1 1 1 1 0 1 1 1 3 2 2 2 3 4 3 5 6 5 6 5
2 2 3 3 3 2 2 1 1 1 1 0 1 1 1 2 2 2 3 2 2 2 2 2 2 2 1 1 1 2 2 2 2 2 2 2 2 2 3 4 6 6 7
2 2 2 2 2 2 2 2 3 2 1 2 2 2 2 2 2 2 2 2 2 2 2 2 2 2 2 1 1 1 2 3 2 1 2 2 2 2 3 4 4 5 6
3 2 2 2 1 1 1 2 2 1 1 1 1 2 2 1 2 2 2 2 2 2 2 2 2 2 2 2 2 1 1 1 1 2 2 2 2 2 2 3 3 3 4
2 2 2 2 1 1 1 1 1 1 1 1 1 1 1 1 1 1 1 2 2 2 2 3 3 3 3 3 2 2 2 2 2 2 2 2 2 2 2 2 2 3 3
Wind_Direction
146 151 138 130 126 121 118 113 110 108 107 106 106 106 107 109 112 116 120 124 126 129 131 132 130 128 128 128 127 129 131 133 137 137 135 135 136 138 137 135 136 133 134
146 147 139 133 130 126 123 118 116 114 114 113 112 112 112 114 116 120 123 126 129 131 133 133 134 133 135 134 134 134 137 137 139 141 142 144 143 141 140 141 140 142 141
135 139 137 135 134 130 127 124 123 122 121 119 118 118 117 118 121 125 128 130 133 136 139 138 138 140 141 140 140 140 142 142 143 144 145 144 151 150 150 148 145 145 144
137 138 135 136 135 132 130 128 128 128 127 126 125 125 124 125 127 131 134 137 139 142 145 145 146 146 148 149 148 146 149 152 151 151 145 148 159 156 158 158 153 151 150
132 135 139 137 138 136 135 134 134 133 134 134 134 133 134 136 136 137 142 146 148 149 152 153 154 156 155 158 160 159 161 162 159 149 145 157 161 162 162 162 160 159 159
133 140 143 139 140 140 139 139 140 138 137 139 141 141 142 144 145 146 146 153 157 158 162 165 167 168 168 170 173 172 172 167 161 149 153 171 172 171 165 165 166 165 164
135 136 147 143 143 145 146 144 144 145 143 143 145 146 148 149 148 147 149 155 162 168 174 178 181 179 184 186 186 185 179 174 161 155 165 177 179 172 166 166 170 168 168
136 133 144 147 149 147 148 149 149 150 149 148 149 151 155 155 154 154 156 160 166 177 187 191 186 193 201 203 200 197 192 184 166 169 178 181 178 174 171 171 174 172 171
132 136 146 154 156 153 152 152 155 154 150 150 153 157 159 160 163 166 167 167 175 187 192 196 198 205 212 211 209 211 210 197 175 180 191 184 180 180 177 175 175 175 172
126 142 149 147 147 152 157 159 160 157 156 155 157 162 167 172 175 175 177 179 181 191 198 199 208 216 221 220 220 220 213 201 185 191 194 189 185 183 182 180 176 175 176
119 129 140 141 139 148 158 165 165 165 165 163 166 168 166 172 181 183 186 191 196 202 208 212 220 230 233 230 231 227 220 200 191 195 197 192 189 187 187 186 181 178 180
143 151 149 143 137 153 170 155 165 169 170 176 174 174 172 173 190 194 200 204 209 211 217 225 233 237 241 240 244 240 218 201 203 195 198 195 194 192 192 191 188 185 183
152 145 142 146 144 163 168 160 166 165 174 194 192 184 179 175 189 198 190 220 223 222 226 237 243 238 231 233 240 235 218 206 202 198 199 198 197 196 195 193 191 190 187
142 147 142 137 132 145 161 166 169 176 180 194 203 192 171 164 179 185 189 206 211 224 229 235 233 230 234 237 232 232 224 212 198 194 201 202 199 198 199 196 194 192 191
142 147 155 144 143 152 156 180 174 180 182 189 193 197 172 167 177 177 185 183 199 207 216 226 230 231 226 240 241 234 225 212 200 195 200 204 202 201 203 200 199 198 197
139 145 152 149 150 142 153 169 180 180 175 173 183 189 169 168 162 156 163 172 193 197 206 213 224 222 232 237 243 238 227 216 208 204 202 205 205 204 207 205 202 202 201
145 143 148 152 143 144 159 165 153 162 149 160 180 172 159 168 163 161 176 193 215 206 206 214 244 237 247 255 257 252 234 216 209 209 205 201 203 207 209 207 205 203 203
138 137 146 129 135 144 151 149 146 146 148 174 167 153 161 167 162 160 181 204 225 206 190 195 228 255 265 261 258 258 245 222 214 213 208 204 200 206 211 210 208 205 207
146 142 141 143 158 164 161 149 139 131 147 179 169 165 184 179 156 187 207 217 207 203 214 228 227 209 245 265 260 249 245 233 221 218 212 210 207 204 204 211 210 207 210
145 151 154 161 170 155 129 104 88 69 59 114 182 202 191 176 174 201 226 226 197 188 241 235 236 237 230 241 270 280 261 246 228 215 216 216 208 203 203 207 205 212 213
133 147 162 164 178 154 141 146 151 184 210 292 269 241 208 183 182 203 217 219 209 205 225 220 208 242 260 239 10 320 317 289 254 231 213 206 208 202 195 200 200 201 211
155 163 164 169 175 175 176 177 174 170 188 202 262 271 220 204 203 209 199 209 215 199 220 228 180 198 260 199 152 121 328 329 306 266 232 211 211 200 200 204 200 201 204
150 168 162 173 171 174 169 135 97 67 32 46 264 257 232 204 211 201 194 199 209 194 204 217 191 185 226 263 175 155 168 229 291 309 280 244 223 209 212 211 209 210 207
170 154 150 157 158 161 153 150 158 157 195 222 215 223 235 217 220 215 199 197 203 198 203 219 208 196 183 222 255 213 190 175 182 289 310 295 253 230 225 222 219 216 209
157 154 153 145 133 147 167 178 165 177 218 238 248 239 241 238 229 220 207 197 203 207 209 214 221 211 199 198 204 209 222 214 185 182 266 296 304 268 242 231 221 216 211
133 155 153 140 129 121 139 158 163 175 206 196 261 246 254 260 252 228 199 198 212 220 221 220 216 212 215 208 209 194 186 192 206 192 218 248 267 277 266 249 232 221 214